This is the latest recevied weather packets stored in our database for station/object N4CRH-13. If no packets are shown the sender has not sent any weather packets the latest 1 day(s).
| Time | Temp. | Humidity | Pressure | Rain* | Wind** | Luminosity | Snow |
|---|---|---|---|---|---|---|---|
| 1778027937 | -1.11° C | 99% | 1290.1 hPa | 0 mm | 5.36 m/s, 281° | 16 W/m² | - |
| 1778027633 | -1.11° C | 99% | 1290.1 hPa | 0 mm | 4.92 m/s, 310° | 12 W/m² | - |
| 1778027329 | -1.11° C | 99% | 1290.1 hPa | 0 mm | 4.92 m/s, 243° | 12 W/m² | - |
| 1778027026 | -1.11° C | 99% | 1289.8 hPa | 0 mm | 4.02 m/s, 263° | 10 W/m² | - |
| 1778026722 | -0.56° C | 99% | 1289.8 hPa | 0 mm | 4.92 m/s, 268° | 11 W/m² | - |
| 1778026419 | -0.56° C | 99% | 1290 hPa | 0 mm | 4.92 m/s, 341° | 11 W/m² | - |
| 1778026116 | 0° C | 99% | 1289.8 hPa | 0 mm | 3.13 m/s, 294° | 7 W/m² | - |
| 1778025814 | 0° C | 99% | 1289.8 hPa | 0 mm | 4.92 m/s, 307° | 7 W/m² | - |
| 1778025510 | 0° C | 99% | 1289.4 hPa | 0 mm | 2.68 m/s, 292° | 8 W/m² | - |
| 1778025207 | 0° C | 99% | 1289.5 hPa | 0 mm | 3.58 m/s, 255° | 13 W/m² | - |
| 1778024899 | 0° C | 99% | 1289.2 hPa | 0 mm | 2.68 m/s, 271° | 17 W/m² | - |
| 1778024597 | 0° C | 99% | 1289.5 hPa | 0 mm | 2.68 m/s, 306° | 14 W/m² | - |
| 1778024293 | 0° C | 99% | 1289.6 hPa | 0 mm | 2.24 m/s, 299° | 15 W/m² | - |
| 1778023991 | 0° C | 99% | 1289.5 hPa | 0 mm | 3.13 m/s, 273° | 26 W/m² | - |
| 1778023688 | 0° C | 99% | 1289.2 hPa | 0 mm | 3.13 m/s, 269° | 24 W/m² | - |
| 1778023386 | 0° C | 99% | 1289.2 hPa | 0 mm | 3.58 m/s, 283° | 27 W/m² | - |
| 1778023083 | 0.56° C | 99% | 1289.2 hPa | 0 mm | 3.13 m/s, 297° | 20 W/m² | - |
| 1778022781 | 0.56° C | 99% | 1289.2 hPa | 0 mm | 4.02 m/s, 303° | 31 W/m² | - |
| 1778022478 | 0.56° C | 99% | 1289.2 hPa | 0 mm | 3.13 m/s, 270° | 38 W/m² | - |
| 1778022175 | 0.56° C | 99% | 1289 hPa | 0 mm | 3.58 m/s, 306° | 56 W/m² | - |
| 1778021871 | 0.56° C | 99% | 1288.5 hPa | 0 mm | 3.13 m/s, 293° | 65 W/m² | - |
| 1778021569 | 0.56° C | 99% | 1288.6 hPa | 0 mm | 3.58 m/s, 243° | 60 W/m² | - |
| 1778021263 | 0.56° C | 99% | 1288.7 hPa | 1.27 mm | 2.24 m/s, 256° | 48 W/m² | - |
| 1778020962 | 0.56° C | 99% | 1288.6 hPa | 1.27 mm | 3.13 m/s, 248° | 43 W/m² | - |
| 1778020659 | 0.56° C | 99% | 1288.5 hPa | 0 mm | 2.68 m/s, 266° | 51 W/m² | - |
* Rain latest hour (hover to see other rain measurements)
** Current wind speed in m/s (hover to see current wind gust speed)